Date String (YYYY-MM-DD hh:mm:ss) UTC,Instrument flags,Ambient pressure (hPa),Sample flow (lpm),Bypass flow (lpm),Sample temperature (°C),Ambient temperature (°C),ASC tube jacket temperature (°C),LED temperature (°C),Box temperature (°C),Sample RH (%),Span deviation,Mass concentration (μg/m³),Mass concentration (μg/m³),Mass concentration (μg/m³)
DateTimeUTC,F1_M11,P_M11,Q1_M11,Q2_M11,T1_M11,T2_M11,T3_M11,T4_M11,T5_M11,U1_M11,ZSPAN_M11,X0_M11,X2_M11,X1_M11
2023-03-07 01:00:00,,0825.0,5.01,0.00,22.6,22.5,00.0,31.2,24.5,14.2,-000.9,0010.88,0005.44,0005.03
2023-03-07 01:01:00,,0825.1,4.97,0.00,22.6,22.1,00.0,31.2,24.4,14.1,-000.6,0010.86,0005.38,0004.98
2023-03-07 01:02:00,,0824.9,4.99,0.00,22.6,21.9,00.0,31.2,24.4,14.1,-000.2,0010.02,0005.32,0004.94
2023-03-07 01:03:00,,0824.9,5.01,0.00,22.6,21.6,00.0,31.3,24.3,14.0,0000.1,0009.43,0005.27,0004.88
2023-03-07 01:04:00,,0824.9,5.00,0.00,22.6,21.4,00.0,31.3,24.3,13.9,0000.1,0009.43,0005.22,0004.82
2023-03-07 01:05:00,,0824.9,5.00,0.00,22.6,21.2,00.0,31.3,24.2,13.9,0000.2,0009.60,0005.19,0004.78
2023-03-07 01:06:00,,0824.9,4.97,0.00,22.5,21.1,00.0,31.3,24.2,13.8,0000.5,0009.59,0005.14,0004.71
2023-03-07 01:07:00,,0825.0,5.01,0.00,22.5,21.0,00.0,31.3,24.2,13.9,0000.6,0009.59,0005.08,0004.64
2023-03-07 01:08:00,,0825.1,5.03,0.00,22.5,21.0,00.0,31.3,24.2,13.9,0000.0,0009.45,0005.00,0004.59
2023-03-07 01:09:00,,0825.1,5.02,0.00,22.5,20.9,00.0,31.3,24.1,13.9,0000.0,0008.87,0004.97,0004.53
2023-03-07 01:10:00,,0825.1,4.98,0.00,22.5,20.8,00.0,31.3,24.1,13.9,0000.0,0008.28,0004.93,0004.49
2023-03-07 01:11:00,,0825.1,5.00,0.00,22.4,20.7,00.0,31.3,24.1,13.9,0000.0,0008.12,0004.86,0004.46
2023-03-07 01:12:00,,0825.1,4.98,0.00,22.4,20.7,00.0,31.2,24.1,14.0,0000.0,0008.11,0004.86,0004.45
2023-03-07 01:13:00,,0825.2,4.99,0.00,22.4,20.7,00.0,31.2,24.0,14.0,0000.0,0007.98,0004.82,0004.43
2023-03-07 01:14:00,,0825.1,5.03,0.00,22.4,20.9,00.0,31.2,24.0,14.0,0000.0,0007.99,0004.83,0004.42
2023-03-07 01:15:00,,0825.2,4.99,0.00,22.5,21.8,00.0,31.2,24.3,14.0,0000.0,0007.97,0004.81,0004.41
2023-03-07 01:16:00,,0825.2,5.01,0.00,22.6,22.9,00.0,31.2,24.6,14.0,0000.0,0007.80,0004.81,0004.39
2023-03-07 01:17:00,,0825.2,5.00,0.00,22.7,23.0,00.0,31.3,24.7,13.9,0000.0,0007.80,0004.81,0004.39
2023-03-07 01:18:00,,0825.2,5.00,0.00,22.7,22.6,00.0,31.3,24.6,13.9,0000.0,0008.11,0004.82,0004.41
2023-03-07 01:19:00,,0825.1,4.99,0.00,22.7,22.2,00.0,31.3,24.5,13.9,0000.0,0008.75,0004.84,0004.42
2023-03-07 01:20:00,,0825.1,5.01,0.00,22.7,21.9,00.0,31.3,24.5,14.0,0000.0,0008.79,0004.83,0004.42
2023-03-07 01:21:00,,0825.2,4.99,0.00,22.7,21.6,00.0,31.4,24.4,14.0,0000.0,0008.88,0004.84,0004.43
2023-03-07 01:22:00,,0825.2,5.00,0.00,22.7,21.4,00.0,31.4,24.4,14.1,0000.0,0008.92,0004.87,0004.44
2023-03-07 01:23:00,,0825.2,5.00,0.00,22.7,21.2,00.0,31.4,24.3,14.1,0000.0,0008.92,0004.88,0004.45
2023-03-07 01:24:00,,0825.2,5.00,0.00,22.6,21.0,00.0,31.4,24.2,14.2,0000.0,0009.00,0004.91,0004.46
2023-03-07 01:25:00,,0825.2,5.00,0.00,22.6,20.9,00.0,31.4,24.2,14.3,0000.0,0009.17,0004.94,0004.46
2023-03-07 01:26:00,,0825.3,5.01,0.00,22.6,20.8,00.0,31.4,24.1,14.4,0000.2,0009.23,0004.96,0004.49
2023-03-07 01:27:00,,0825.2,4.99,0.00,22.5,20.7,00.0,31.3,24.1,14.4,0000.0,0009.23,0004.97,0004.51
2023-03-07 01:28:00,,0825.2,5.00,0.00,22.5,20.5,00.0,31.3,24.0,14.5,0001.4,0009.19,0004.97,0004.53
2023-03-07 01:29:00,,0825.3,5.00,0.00,22.4,20.4,00.0,31.3,23.9,14.6,0001.3,0008.94,0004.99,0004.55
2023-03-07 01:30:00,,0825.3,5.00,0.00,22.4,20.4,00.0,31.3,23.9,14.7,0000.3,0008.72,0005.03,0004.56
2023-03-07 01:31:00,,0825.3,5.00,0.00,22.4,20.4,00.0,31.3,23.9,14.7,-000.1,0009.37,0005.06,0004.58
2023-03-07 01:32:00,,0825.3,5.01,0.00,22.3,20.4,00.0,31.3,23.9,14.7,-000.6,0009.28,0005.06,0004.60
2023-03-07 01:33:00,,0825.3,5.00,0.00,22.3,20.4,00.0,31.2,23.9,14.7,-000.8,0009.78,0005.09,0004.62
2023-03-07 01:34:00,,0825.3,5.00,0.00,22.3,20.3,00.0,31.2,23.8,14.8,-001.1,0010.02,0005.11,0004.63
2023-03-07 01:35:00,,0825.3,5.00,0.00,22.2,20.2,00.0,31.2,23.7,14.9,-000.9,0010.29,0005.13,0004.63
2023-03-07 01:36:00,,0825.3,5.00,0.00,22.2,20.2,00.0,31.2,23.7,14.9,-001.2,0010.43,0005.11,0004.64
2023-03-07 01:37:00,,0825.4,5.02,0.00,22.2,20.5,00.0,31.1,23.8,15.0,-001.4,0010.57,0005.13,0004.65
2023-03-07 01:38:00,,0825.4,5.04,0.00,22.3,21.7,00.0,31.1,24.1,14.9,-001.7,0010.51,0005.10,0004.64
2023-03-07 01:39:00,,0825.4,5.00,0.00,22.4,22.7,00.0,31.1,24.4,14.8,-000.5,0010.48,0005.07,0004.63
2023-03-07 01:40:00,,0825.4,5.00,0.00,22.5,22.7,00.0,31.2,24.4,14.8,0000.0,0011.16,0005.06,0004.63
2023-03-07 01:41:00,,0825.4,4.99,0.00,22.5,22.3,00.0,31.2,24.4,14.8,0000.0,0011.31,0005.06,0004.62
2023-03-07 01:42:00,,0825.4,4.98,0.00,22.5,21.9,00.0,31.2,24.3,14.8,0000.0,0010.49,0005.05,0004.62
2023-03-07 01:43:00,,0825.3,4.98,0.00,22.5,21.5,00.0,31.2,24.1,14.8,0000.0,0010.47,0005.04,0004.61
2023-03-07 01:44:00,,0825.4,5.00,0.00,22.5,21.2,00.0,31.2,24.1,14.9,0000.0,0010.74,0005.02,0004.61
2023-03-07 01:45:00,,0825.4,5.00,0.00,22.4,21.1,00.0,31.2,24.1,14.9,0000.0,0011.27,0005.03,0004.61
2023-03-07 01:46:00,,0825.4,5.00,0.00,22.4,20.9,00.0,31.2,24.1,14.9,-000.2,0010.91,0005.01,0004.63
2023-03-07 01:47:00,,0825.4,5.01,0.00,22.4,20.8,00.0,31.2,24.0,15.0,-001.6,0010.72,0005.03,0004.63
2023-03-07 01:48:00,,0825.4,5.00,0.00,22.4,20.7,00.0,31.2,23.9,15.0,-001.3,0010.62,0005.02,0004.64
2023-03-07 01:49:00,,0825.4,5.00,0.00,22.3,20.5,00.0,31.2,23.9,15.1,-001.1,0011.42,0005.05,0004.65
2023-03-07 01:50:00,,0825.4,4.99,0.00,22.3,20.5,00.0,31.2,23.9,15.1,-001.2,0012.03,0005.09,0004.66
2023-03-07 01:51:00,,0825.4,5.00,0.00,22.3,20.5,00.0,31.2,23.9,15.2,-001.7,0011.89,0005.15,0004.68
2023-03-07 01:52:00,,0825.4,5.00,0.00,22.3,20.5,00.0,31.1,23.9,15.2,-001.9,0011.96,0005.15,0004.69
2023-03-07 01:53:00,,0825.3,5.00,0.00,22.3,20.5,00.0,31.1,23.9,15.2,-001.6,0011.92,0005.14,0004.70
2023-03-07 01:54:00,,0825.4,5.00,0.00,22.3,20.5,00.0,31.1,23.9,15.3,-001.5,0011.97,0005.16,0004.70
2023-03-07 01:55:00,,0825.4,4.99,0.00,22.2,20.5,00.0,31.1,23.9,15.3,-000.9,0011.46,0005.18,0004.71
2023-03-07 01:56:00,,0825.4,5.01,0.00,22.2,20.6,00.0,31.1,23.9,15.2,-001.0,0010.42,0005.15,0004.72
2023-03-07 01:57:00,,0825.4,5.02,0.00,22.2,20.5,00.0,31.1,23.9,15.3,-000.9,0010.49,0005.18,0004.72
2023-03-07 01:58:00,,0825.4,4.99,0.00,22.2,20.5,00.0,31.1,23.9,15.3,-000.9,0010.55,0005.18,0004.73
2023-03-07 01:59:00,,0825.4,4.99,0.00,22.2,20.5,00.0,31.1,23.9,15.3,-001.3,0010.53,0005.17,0004.73
